| time (UTC) | temp F | wind direction | speed MPH | gust MPH | rain 1hr in | rain 24hr in | rain mn in | humidity % | barometer mb |
| 20260905230030 | 55 | 169 | 0.0 | 0.0 | 0.00 | 0.00 | 0.00 | 89 | 1023.3 |
| 20260905224529 | 55 | 169 | 0.0 | 0.0 | 0.00 | 0.00 | 0.00 | 88 | 1023.3 |
| 20260905223027 | 56 | 169 | 0.0 | 0.0 | 0.00 | 0.00 | 0.00 | 88 | 1023.2 |
| 20260905221533 | 56 | 169 | 0.0 | 0.0 | 0.00 | 0.00 | 0.00 | 86 | 1023.2 |
| 20260905220019 | 57 | 169 | 0.0 | 1.0 | 0.00 | 0.00 | 0.00 | 86 | 1023.1 |
| 20260905214517 | 57 | 169 | 0.0 | 1.0 | 0.00 | 0.00 | 0.00 | 86 | 1023.0 |
| 20260905213019 | 57 | 169 | 0.0 | 0.0 | 0.00 | 0.00 | 0.00 | 87 | 1023.0 |
| 20260905211513 | 59 | 169 | 0.0 | 0.0 | 0.00 | 0.00 | 0.00 | 84 | 1023.0 |
| 20260905210013 | 59 | 169 | 0.0 | 1.0 | 0.00 | 0.00 | 0.00 | 85 | 1022.9 |
| 20260905204510 | 59 | 170 | 0.0 | 1.0 | 0.00 | 0.00 | 0.00 | 88 | 1023.0 |
| 20260905203009 | 59 | 176 | 0.0 | 1.0 | 0.00 | 0.00 | 0.00 | 89 | 1022.7 |
| 20260905201511 | 60 | 176 | 0.0 | 1.0 | 0.00 | 0.00 | 0.00 | 89 | 1022.6 |
| 20260905200005 | 60 | 176 | 0.0 | 1.0 | 0.00 | 0.00 | 0.00 | 87 | 1022.5 |
| 20260905194501 | 61 | 176 | 0.0 | 0.0 | 0.00 | 0.00 | 0.00 | 86 | 1022.4 |
| 20260905193058 | 62 | 176 | 0.0 | 1.0 | 0.00 | 0.00 | 0.00 | 84 | 1022.3 |
| 20260905191557 | 63 | 176 | 0.0 | 1.0 | 0.00 | 0.00 | 0.00 | 82 | 1022.1 |
| 20260905190110 | 64 | 176 | 0.0 | 1.0 | 0.00 | 0.00 | 0.00 | 81 | 1021.8 |
| 20260905184606 | 65 | 176 | 0.0 | 0.0 | 0.00 | 0.00 | 0.00 | 78 | 1021.7 |
| 20260905183049 | 66 | 176 | 0.0 | 1.0 | 0.00 | 0.00 | 0.00 | 76 | 1021.3 |
| 20260905181550 | 67 | 205 | 0.0 | 1.0 | 0.00 | 0.00 | 0.00 | 74 | 1020.9 |
| 20260905180046 | 68 | 189 | 0.0 | 1.0 | 0.00 | 0.00 | 0.00 | 72 | 1020.7 |
| 20260905174554 | 69 | 207 | 0.0 | 1.0 | 0.00 | 0.00 | 0.00 | 70 | 1020.5 |
| 20260905173046 | 70 | 207 | 0.0 | 1.0 | 0.00 | 0.00 | 0.00 | 67 | 1020.1 |
| 20260905171545 | 71 | 208 | 0.0 | 1.0 | 0.00 | 0.00 | 0.00 | 63 | 1020.0 |
| 20260905170045 | 72 | 98 | 0.0 | 1.0 | 0.00 | 0.00 | 0.00 | 61 | 1019.8 |
| 20260905164544 | 73 | 170 | 0.0 | 1.0 | 0.00 | 0.00 | 0.00 | 59 | 1019.7 |
| 20260905163043 | 74 | 79 | 0.0 | 4.0 | 0.00 | 0.00 | 0.00 | 56 | 1019.6 |
| 20260905161543 | 75 | 212 | 0.0 | 2.0 | 0.00 | 0.00 | 0.00 | 55 | 1019.5 |
| 20260905160042 | 76 | 200 | 0.0 | 1.0 | 0.00 | 0.00 | 0.00 | 53 | 1019.4 |
| 20260905154542 | 78 | 115 | 0.0 | 1.0 | 0.00 | 0.00 | 0.00 | 50 | 1019.2 |
| 20260905153141 | 77 | 111 | 0.0 | 1.0 | 0.00 | 0.00 | 0.00 | 51 | 1019.2 |
| 20260905151543 | 77 | 113 | 0.0 | 4.0 | 0.00 | 0.00 | 0.00 | 52 | 1019.3 |
| 20260905150040 | 77 | 115 | 0.0 | 2.0 | 0.00 | 0.00 | 0.00 | 52 | 1019.0 |
| 20260905144543 | 78 | 101 | 0.0 | 4.0 | 0.00 | 0.00 | 0.00 | 50 | 1019.4 |
| 20260905143040 | 81 | 165 | 0.0 | 2.0 | 0.00 | 0.00 | 0.00 | 46 | 1019.4 |
| 20260905141544 | 83 | 215 | 0.0 | 3.0 | 0.00 | 0.00 | 0.00 | 44 | 1019.3 |
| 20260905140038 | 83 | 124 | 0.0 | 2.0 | 0.00 | 0.00 | 0.00 | 46 | 1019.5 |
| 20260905134537 | 82 | 207 | 0.0 | 1.0 | 0.00 | 0.00 | 0.00 | 46 | 1019.5 |
| 20260905133034 | 80 | 141 | 0.0 | 0.0 | 0.00 | 0.00 | 0.00 | 48 | 1019.7 |
| 20260905131545 | 78 | 103 | 0.0 | 1.0 | 0.00 | 0.00 | 0.00 | 52 | 1019.7 |
| 20260905130030 | 77 | 5 | 0.0 | 1.0 | 0.00 | 0.00 | 0.00 | 53 | 1019.7 |
| 20260905124539 | 75 | 353 | 0.0 | 2.0 | 0.00 | 0.00 | 0.00 | 53 | 1019.8 |
| 20260905123027 | 75 | 357 | 0.0 | 3.0 | 0.00 | 0.00 | 0.00 | 53 | 1019.7 |
| 20260905121531 | 75 | 13 | 0.0 | 7.0 | 0.00 | 0.00 | 0.00 | 53 | 1019.6 |
| 20260905120029 | 75 | 6 | 0.0 | 4.0 | 0.00 | 0.00 | 0.00 | 53 | 1019.6 |
| 20260905114537 | 76 | 353 | 0.0 | 5.0 | 0.00 | 0.00 | 0.00 | 52 | 1019.8 |
| 20260905113024 | 77 | 32 | 1.0 | 7.0 | 0.00 | 0.00 | 0.00 | 50 | 1019.5 |
| 20260905111527 | 77 | 32 | 2.0 | 7.0 | 0.00 | 0.00 | 0.00 | 50 | 1019.5 |
| 20260905110022 | 77 | 6 | 2.0 | 7.0 | 0.00 | 0.00 | 0.00 | 50 | 1019.5 |
| 20260905104518 | 76 | 5 | 1.0 | 7.0 | 0.00 | 0.00 | 0.00 | 53 | 1019.5 |
| 20260905103028 | 75 | 357 | 2.0 | 5.0 | 0.00 | 0.00 | 0.00 | 52 | 1019.7 |
| 20260905101525 | 75 | 25 | 1.0 | 8.0 | 0.00 | 0.00 | 0.00 | 54 | 1019.8 |
| 20260905100012 | 72 | 358 | 1.0 | 5.0 | 0.00 | 0.00 | 0.00 | 57 | 1020.0 |
| 20260905094509 | 70 | 345 | 1.0 | 5.0 | 0.00 | 0.00 | 0.00 | 59 | 1020.6 |
| 20260905093008 | 69 | 347 | 2.0 | 5.0 | 0.00 | 0.00 | 0.00 | 59 | 1020.5 |
| 20260905091509 | 69 | 341 | 0.0 | 6.0 | 0.00 | 0.00 | 0.00 | 58 | 1020.5 |
| 20260905090007 | 69 | 30 | 1.0 | 5.0 | 0.00 | 0.00 | 0.00 | 58 | 1020.5 |
| 20260905084518 | 69 | 9 | 0.0 | 8.0 | 0.00 | 0.00 | 0.00 | 58 | 1020.6 |
| 20260905083008 | 68 | 340 | 1.0 | 5.0 | 0.00 | 0.00 | 0.00 | 58 | 1020.9 |
| 20260905081505 | 68 | 4 | 0.0 | 4.0 | 0.00 | 0.00 | 0.00 | 57 | 1020.9 |
| 20260905080003 | 68 | 356 | 0.0 | 5.0 | 0.00 | 0.00 | 0.00 | 57 | 1021.1 |
| 20260905074502 | 68 | 10 | 1.0 | 5.0 | 0.00 | 0.00 | 0.00 | 56 | 1020.8 |
| 20260905073005 | 70 | 8 | 2.0 | 12.0 | 0.00 | 0.00 | 0.00 | 55 | 1021.0 |
| 20260905071603 | 69 | 352 | 5.0 | 12.0 | 0.00 | 0.00 | 0.00 | 55 | 1021.0 |
| 20260905070108 | 69 | 9 | 2.0 | 8.0 | 0.00 | 0.00 | 0.00 | 56 | 1020.6 |
| 20260905064556 | 69 | 30 | 2.0 | 10.0 | 0.00 | 0.00 | 0.00 | 57 | 1020.4 |
| 20260905063056 | 69 | 4 | 1.0 | 7.0 | 0.00 | 0.00 | 0.00 | 57 | 1020.0 |
| 20260905061607 | 69 | 349 | 1.0 | 8.0 | 0.00 | 0.00 | 0.00 | 56 | 1019.6 |
| 20260905060048 | 70 | 15 | 0.0 | 9.0 | 0.00 | 0.00 | 0.00 | 56 | 1018.9 |
| 20260905054546 | 70 | 30 | 1.0 | 11.0 | 0.00 | 0.00 | 0.00 | 58 | 1018.5 |
| 20260905053042 | 70 | 349 | 0.0 | 7.0 | 0.00 | 0.00 | 0.00 | 64 | 1017.8 |
| 20260905051540 | 70 | 37 | 0.0 | 6.0 | 0.00 | 0.00 | 0.00 | 68 | 1017.3 |
| 20260905050034 | 69 | 351 | 1.0 | 8.0 | 0.00 | 0.00 | 0.00 | 74 | 1016.7 |
| 20260905044529 | 64 | 162 | 0.0 | 0.0 | 0.00 | 0.00 | 0.00 | 85 | 1015.7 |
| 20260905043028 | 65 | 162 | 0.0 | 0.0 | 0.00 | 0.00 | 0.00 | 84 | 1015.2 |
| 20260905041527 | 64 | 186 | 0.0 | 0.0 | 0.00 | 0.00 | 0.00 | 85 | 1014.9 |
| 20260905040024 | 65 | 176 | 0.0 | 0.0 | 0.00 | 0.00 | 0.00 | 84 | 1014.7 |
| 20260905034528 | 65 | 176 | 0.0 | 0.0 | 0.00 | 0.00 | 0.00 | 83 | 1014.3 |
| 20260905033023 | 64 | 176 | 0.0 | 0.0 | 0.00 | 0.00 | 0.00 | 84 | 1014.2 |
| 20260905031531 | 64 | 176 | 0.0 | 0.0 | 0.00 | 0.00 | 0.00 | 85 | 1013.9 |
| 20260905030026 | 63 | 176 | 0.0 | 0.0 | 0.00 | 0.00 | 0.00 | 88 | 1013.7 |
| 20260905024517 | 62 | 176 | 0.0 | 0.0 | 0.00 | 0.00 | 0.00 | 90 | 1013.7 |
| 20260905023026 | 62 | 176 | 0.0 | 0.0 | 0.00 | 0.00 | 0.00 | 89 | 1013.5 |
| 20260905021513 | 62 | 176 | 0.0 | 0.0 | 0.00 | 0.00 | 0.00 | 89 | 1013.6 |
| 20260905020012 | 63 | 176 | 0.0 | 0.0 | 0.00 | 0.00 | 0.00 | 89 | 1013.6 |
| 20260905014509 | 63 | 176 | 0.0 | 0.0 | 0.00 | 0.00 | 0.00 | 87 | 1013.8 |
| 20260905013009 | 64 | 176 | 0.0 | 0.0 | 0.00 | 0.00 | 0.00 | 86 | 1013.8 |
| 20260905011506 | 64 | 176 | 0.0 | 0.0 | 0.00 | 0.00 | 0.00 | 86 | 1013.8 |
| 20260905010004 | 64 | 176 | 0.0 | 0.0 | 0.00 | 0.00 | 0.00 | 84 | 1013.8 |
| 20260905004502 | 65 | 176 | 0.0 | 0.0 | 0.00 | 0.00 | 0.00 | 83 | 1013.7 |
| 20260905003100 | 65 | 176 | 0.0 | 0.0 | 0.00 | 0.00 | 0.00 | 82 | 1013.7 |
| 20260905001556 | 66 | 176 | 0.0 | 0.0 | 0.00 | 0.00 | 0.00 | 80 | 1013.6 |
| 20260905000052 | 67 | 176 | 0.0 | 0.0 | 0.00 | 0.00 | 0.00 | 78 | 1013.6 |
| 20260904234552 | 68 | 176 | 0.0 | 0.0 | 0.00 | 0.00 | 0.00 | 77 | 1013.7 |
| 20260904233100 | 68 | 176 | 0.0 | 0.0 | 0.00 | 0.00 | 0.00 | 77 | 1013.6 |
| 20260904231551 | 67 | 176 | 0.0 | 0.0 | 0.00 | 0.00 | 0.00 | 78 | 1013.6 |